This demonstration page uses our WeatherBlox Daily Observations layout. Learn more.

39.29038, -76.61219

Hourly Observations for July 26, 2017

Temp ( °F °C ) Dew Point ( °F °C ) Humidity (%) Winds ( mph kmh ) Pressure ( in mb ) Visibility ( mi km ) Precip ( " mm )
12:54 am 00:54 undefined 74 23.3 62 16.7 67 67 undefined N/A 30.18 1022 N/A 0 0
1:54 am 01:54 undefined 73 22.8 62 16.7 69 69 undefined N/A 30.18 1022 N/A 0 0
2:54 am 02:54 undefined 72 22.2 63 17.2 73 73 undefined N/A 30.18 1022 N/A 0 0
3:54 am 03:54 undefined 71 21.7 65 18.3 81 81 undefined N/A 30.18 1022 N/A 0 0
4:54 am 04:54 undefined 70 21.1 66 18.9 87 87 undefined N/A 30.18 1022 N/A 0 0
5:54 am 05:54 undefined 70 21.1 66 18.9 87 87 undefined N/A 30.18 1022 N/A 0 0
6:54 am 06:54 undefined 71 21.7 66 18.9 84 84 undefined N/A 30.18 1022 N/A 0 0
7:54 am 07:54 undefined 72 22.2 67 19.4 84 84 undefined N/A 30.21 1023 N/A 0 0
8:54 am 08:54 undefined 72 22.2 67 19.4 84 84 undefined N/A 30.21 1023 N/A 0 0
9:54 am 09:54 undefined 72 22.2 67 19.4 84 84 undefined N/A 30.21 1023 N/A 0 0
10:54 am 10:54 undefined 74 23.3 67 19.4 79 79 undefined N/A 30.21 1023 N/A 0 0
11:54 am 11:54 undefined 77 25 67 19.4 71 71 undefined N/A 30.21 1023 N/A 0 0
12:54 pm 12:54 undefined 78 25.6 66 18.9 67 67 undefined N/A 30.18 1022 N/A 0 0
1:54 pm 13:54 undefined 81 27.2 67 19.4 62 62 undefined N/A 30.15 1021 N/A 0 0
2:54 pm 14:54 undefined 82 27.8 66 18.9 58 58 undefined N/A 30.15 1021 N/A 0 0
3:54 pm 15:54 undefined 82 27.8 64 17.8 55 55 undefined N/A 30.12 1020 N/A 0 0
4:54 pm 16:54 undefined 82 27.8 65 18.3 56 56 undefined N/A 30.12 1020 N/A 0 0
5:54 pm 17:54 undefined 82 27.8 65 18.3 56 56 undefined N/A 30.09 1019 N/A 0 0
6:54 pm 18:54 undefined 82 27.8 65 18.3 56 56 undefined N/A 30.09 1019 N/A 0 0
7:54 pm 19:54 undefined 79 26.1 68 20 69 69 undefined N/A 30.09 1019 N/A 0 0
8:54 pm 20:54 undefined 78 25.6 68 20 71 71 undefined N/A 30.09 1019 N/A 0 0
9:54 pm 21:54 undefined 77 25 67 19.4 71 71 undefined N/A 30.09 1019 N/A 0 0
10:54 pm 22:54 undefined 75 23.9 67 19.4 76 76 undefined N/A 30.09 1019 N/A 0 0
11:54 pm 23:54 undefined 75 23.9 67 19.4 76 76 undefined N/A 30.12 1020 N/A 0 0

Powered by AerisWeather